Time,TemperatureF,DewpointF,PressureIn,WindDirection,WindDirectionDegrees,WindSpeedMPH,WindSpeedGustMPH,Humidity,HourlyPrecipIn,Conditions,Clouds,dailyrainin,SoftwareType,DateUTC
2013-07-14 00:00:00,68.1,67.2,30.26,SE,130,0.0,0.0,97,0.00,,CLR,0.03,VWS V13.01,2013-07-14 04:00:00,
2013-07-14 00:01:00,68.1,67.2,30.26,SE,130,0.0,0.0,97,0.00,,CLR,0.03,VWS V13.01,2013-07-14 04:01:00,
2013-07-14 00:02:00,68.0,67.1,30.26,SE,130,0.0,0.0,97,0.00,,,0.00,VWS V13.01,2013-07-14 04:02:00,
2013-07-14 00:03:00,68.0,67.1,30.26,SE,130,0.0,0.0,97,0.00,,,0.00,VWS V13.01,2013-07-14 04:03:00,
2013-07-14 00:08:00,68.0,67.1,30.26,SE,130,0.0,0.0,97,0.00,,,0.00,VWS V13.01,2013-07-14 04:08:00,
2013-07-14 00:13:00,67.9,67.3,30.26,SE,130,0.0,0.0,98,0.00,,,0.00,VWS V13.01,2013-07-14 04:13:00,
2013-07-14 00:18:00,67.9,67.3,30.26,SE,130,0.0,0.0,98,0.00,,,0.00,VWS V13.01,2013-07-14 04:18:00,
2013-07-14 00:23:00,67.8,67.2,30.26,SE,130,0.0,0.0,98,0.00,,,0.00,VWS V13.01,2013-07-14 04:23:00,
2013-07-14 00:28:00,67.7,66.8,30.27,SE,130,0.0,0.0,97,0.00,,,0.00,VWS V13.01,2013-07-14 04:28:00,
2013-07-14 00:33:00,67.7,67.1,30.27,SE,130,0.0,0.0,98,0.00,,,0.00,VWS V13.01,2013-07-14 04:33:00,
2013-07-14 00:38:00,67.7,67.1,30.27,SE,130,0.0,0.0,98,0.00,,,0.00,VWS V13.01,2013-07-14 04:38:00,
2013-07-14 00:43:00,67.6,67.0,30.26,SE,130,0.0,0.0,98,0.00,,,0.00,VWS V13.01,2013-07-14 04:43:00,
2013-07-14 00:48:00,67.7,67.1,30.27,SE,130,0.0,0.0,98,0.00,,,0.00,VWS V13.01,2013-07-14 04:48:00,
2013-07-14 00:53:00,67.7,67.1,30.26,SE,130,0.0,0.0,98,0.00,,,0.00,VWS V13.01,2013-07-14 04:53:00,
2013-07-14 00:58:00,67.6,67.0,30.26,SE,130,0.0,0.0,98,0.00,,,0.00,VWS V13.01,2013-07-14 04:58:00,
2013-07-14 01:03:00,67.5,66.9,30.26,SE,130,0.0,0.0,98,0.00,,,0.00,VWS V13.01,2013-07-14 05:03:00,
2013-07-14 01:08:00,67.5,66.9,30.26,SE,130,0.0,0.0,98,0.00,,,0.00,VWS V13.01,2013-07-14 05:08:00,
2013-07-14 01:13:00,67.5,66.9,30.26,SE,130,0.0,0.0,98,0.00,,,0.00,VWS V13.01,2013-07-14 05:13:00,
2013-07-14 01:18:00,67.6,67.0,30.25,SE,130,0.0,0.0,98,0.00,,,0.00,VWS V13.01,2013-07-14 05:18:00,
2013-07-14 01:23:00,67.7,67.4,30.25,SE,130,0.0,0.0,99,0.00,,,0.00,VWS V13.01,2013-07-14 05:23:00,
2013-07-14 01:28:00,67.8,67.5,30.25,SE,130,0.0,1.0,99,0.00,,,0.00,VWS V13.01,2013-07-14 05:28:00,
2013-07-14 01:33:00,68.1,67.8,30.26,SE,130,0.0,0.0,99,0.00,,,0.00,VWS V13.01,2013-07-14 05:33:00,
2013-07-14 01:38:00,68.2,67.9,30.26,SE,130,0.0,0.0,99,0.00,,,0.00,VWS V13.01,2013-07-14 05:38:00,
2013-07-14 01:43:00,68.3,68.0,30.26,SE,130,0.0,0.0,99,0.00,,,0.00,VWS V13.01,2013-07-14 05:43:00,
2013-07-14 01:48:00,68.3,68.0,30.26,SE,130,0.0,0.0,99,0.00,,,0.00,VWS V13.01,2013-07-14 05:48:00,
2013-07-14 01:53:00,68.5,68.2,30.26,SE,130,0.0,0.0,99,0.00,,,0.00,VWS V13.01,2013-07-14 05:53:00,
2013-07-14 01:58:00,68.6,68.3,30.25,SE,130,0.0,0.0,99,0.00,,,0.00,VWS V13.01,2013-07-14 05:58:00,
2013-07-14 02:03:00,68.6,68.3,30.26,SE,130,0.0,0.0,99,0.00,,,0.00,VWS V13.01,2013-07-14 06:03:00,
2013-07-14 02:08:00,68.7,68.4,30.26,SE,130,0.0,0.0,99,0.00,,,0.00,VWS V13.01,2013-07-14 06:08:00,
2013-07-14 02:13:00,68.8,68.5,30.26,SE,130,0.0,0.0,99,0.00,,,0.00,VWS V13.01,2013-07-14 06:13:00,
2013-07-14 02:19:00,69.0,68.7,30.26,SE,130,0.0,0.0,99,0.00,,,0.00,VWS V13.01,2013-07-14 06:19:00,
2013-07-14 02:24:00,69.2,68.9,30.26,SE,130,0.0,0.0,99,0.00,,,0.00,VWS V13.01,2013-07-14 06:24:00,
2013-07-14 02:29:00,69.3,69.0,30.26,SE,130,0.0,0.0,99,0.00,,,0.00,VWS V13.01,2013-07-14 06:29:00,
2013-07-14 02:34:00,69.4,69.1,30.26,SE,130,0.0,0.0,99,0.00,,,0.00,VWS V13.01,2013-07-14 06:34:00,
2013-07-14 02:39:00,69.5,69.2,30.26,SE,130,0.0,0.0,99,0.00,,,0.00,VWS V13.01,2013-07-14 06:39:00,
2013-07-14 02:44:00,69.5,69.2,30.26,SE,130,0.0,0.0,99,0.00,,,0.00,VWS V13.01,2013-07-14 06:44:00,
2013-07-14 02:49:00,69.6,69.3,30.26,SE,130,0.0,0.0,99,0.00,,,0.00,VWS V13.01,2013-07-14 06:49:00,
2013-07-14 02:54:00,69.6,69.3,30.26,SE,130,0.0,0.0,99,0.00,,,0.00,VWS V13.01,2013-07-14 06:54:00,
2013-07-14 02:59:00,69.7,69.4,30.25,SE,130,0.0,0.0,99,0.00,,,0.00,VWS V13.01,2013-07-14 06:59:00,
2013-07-14 03:04:00,69.7,69.4,30.25,SE,130,0.0,0.0,99,0.00,,,0.00,VWS V13.01,2013-07-14 07:04:00,
2013-07-14 03:09:00,69.7,69.4,30.25,SE,130,0.0,0.0,99,0.00,,,0.00,VWS V13.01,2013-07-14 07:09:00,
2013-07-14 03:14:00,69.6,69.3,30.25,SE,130,0.0,0.0,99,0.00,,,0.00,VWS V13.01,2013-07-14 07:14:00,
2013-07-14 03:19:00,69.6,69.3,30.25,SE,130,0.0,0.0,99,0.00,,,0.00,VWS V13.01,2013-07-14 07:19:00,
2013-07-14 03:24:00,69.6,69.3,30.26,SE,130,0.0,0.0,99,0.00,,,0.00,VWS V13.01,2013-07-14 07:24:00,
2013-07-14 03:29:00,69.6,69.3,30.26,SE,130,0.0,0.0,99,0.00,,,0.00,VWS V13.01,2013-07-14 07:29:00,
2013-07-14 03:34:00,69.6,69.3,30.25,SE,130,0.0,0.0,99,0.00,,,0.00,VWS V13.01,2013-07-14 07:34:00,
2013-07-14 03:39:00,69.6,69.3,30.26,SE,130,0.0,0.0,99,0.00,,,0.00,VWS V13.01,2013-07-14 07:39:00,
2013-07-14 03:44:00,69.6,69.3,30.25,SE,130,0.0,0.0,99,0.00,,,0.00,VWS V13.01,2013-07-14 07:44:00,
2013-07-14 03:49:00,69.6,69.3,30.25,SE,130,0.0,0.0,99,0.00,,,0.00,VWS V13.01,2013-07-14 07:49:00,
2013-07-14 03:54:00,69.6,69.3,30.26,SE,130,0.0,0.0,99,0.00,,,0.00,VWS V13.01,2013-07-14 07:54:00,
2013-07-14 03:59:00,69.7,69.4,30.26,SE,130,0.0,0.0,99,0.00,,,0.00,VWS V13.01,2013-07-14 07:59:00,
2013-07-14 04:04:00,69.7,69.4,30.25,SE,130,0.0,0.0,99,0.00,,,0.00,VWS V13.01,2013-07-14 08:04:00,
2013-07-14 04:09:00,69.6,69.3,30.25,SE,130,0.0,0.0,99,0.00,,,0.00,VWS V13.01,2013-07-14 08:09:00,
2013-07-14 04:14:00,69.6,69.3,30.25,SE,130,0.0,0.0,99,0.00,,,0.00,VWS V13.01,2013-07-14 08:14:00,
2013-07-14 04:20:00,69.7,69.4,30.25,SE,130,0.0,0.0,99,0.00,,,0.00,VWS V13.01,2013-07-14 08:20:00,
2013-07-14 04:25:00,69.7,69.4,30.25,SE,130,0.0,0.0,99,0.00,,,0.00,VWS V13.01,2013-07-14 08:25:00,
2013-07-14 04:30:00,70.0,69.7,30.25,SSW,206,0.0,6.0,99,0.00,,,0.00,VWS V13.01,2013-07-14 08:30:00,
2013-07-14 04:35:00,70.1,69.8,30.25,SSW,206,0.0,0.0,99,0.00,,,0.00,VWS V13.01,2013-07-14 08:35:00,
2013-07-14 04:40:00,70.1,69.8,30.25,SSW,206,0.0,0.0,99,0.00,,,0.00,VWS V13.01,2013-07-14 08:40:00,
2013-07-14 04:45:00,70.0,69.7,30.24,SSW,206,0.0,0.0,99,0.00,,,0.00,VWS V13.01,2013-07-14 08:45:00,
2013-07-14 04:50:00,70.0,69.7,30.25,SSW,206,0.0,0.0,99,0.00,,,0.00,VWS V13.01,2013-07-14 08:50:00,
2013-07-14 04:55:00,69.9,69.6,30.24,SSW,206,0.0,0.0,99,0.00,,,0.00,VWS V13.01,2013-07-14 08:55:00,
2013-07-14 05:00:00,69.9,69.6,30.24,SSW,206,0.0,0.0,99,0.00,,,0.00,VWS V13.01,2013-07-14 09:00:00,
2013-07-14 05:05:00,69.9,69.6,30.25,SSW,206,0.0,0.0,99,0.00,,,0.00,VWS V13.01,2013-07-14 09:05:00,
2013-07-14 05:10:00,69.8,69.5,30.25,SSW,206,0.0,0.0,99,0.00,,,0.00,VWS V13.01,2013-07-14 09:10:00,
2013-07-14 05:15:00,69.7,69.4,30.25,SSW,206,0.0,0.0,99,0.00,,,0.00,VWS V13.01,2013-07-14 09:15:00,
2013-07-14 05:20:00,69.7,69.4,30.25,SSW,206,0.0,0.0,99,0.00,,,0.00,VWS V13.01,2013-07-14 09:20:00,
2013-07-14 05:25:00,69.7,69.4,30.25,SSW,206,0.0,0.0,99,0.00,,,0.00,VWS V13.01,2013-07-14 09:25:00,
2013-07-14 05:30:00,69.8,69.5,30.25,SSW,206,0.0,0.0,99,0.00,,,0.00,VWS V13.01,2013-07-14 09:30:00,
2013-07-14 05:35:00,69.8,69.5,30.25,SSW,206,0.0,0.0,99,0.00,,,0.00,VWS V13.01,2013-07-14 09:35:00,
2013-07-14 05:40:00,69.8,69.5,30.25,SSW,206,0.0,0.0,99,0.00,,,0.00,VWS V13.01,2013-07-14 09:40:00,
2013-07-14 05:45:00,69.8,69.5,30.25,SSW,206,0.0,0.0,99,0.00,,,0.00,VWS V13.01,2013-07-14 09:45:00,
2013-07-14 05:50:00,69.8,69.5,30.26,SSW,206,0.0,0.0,99,0.00,,,0.00,VWS V13.01,2013-07-14 09:50:00,
2013-07-14 05:55:00,69.9,69.6,30.26,SSW,206,0.0,0.0,99,0.00,,,0.00,VWS V13.01,2013-07-14 09:55:00,
2013-07-14 06:00:00,69.9,69.6,30.26,SSW,206,0.0,0.0,99,0.00,,,0.00,VWS V13.01,2013-07-14 10:00:00,
2013-07-14 06:05:00,70.0,69.7,30.26,SSW,206,0.0,0.0,99,0.00,,,0.00,VWS V13.01,2013-07-14 10:05:00,
2013-07-14 06:10:00,70.0,69.7,30.26,SSW,206,0.0,0.0,99,0.00,,,0.00,VWS V13.01,2013-07-14 10:10:00,
2013-07-14 06:15:00,70.0,69.7,30.26,SSW,206,0.0,0.0,99,0.00,,,0.00,VWS V13.01,2013-07-14 10:15:00,
2013-07-14 06:20:00,70.1,69.8,30.26,SSW,206,0.0,0.0,99,0.00,,,0.00,VWS V13.01,2013-07-14 10:20:00,
2013-07-14 06:26:00,70.1,69.8,30.26,SSW,206,0.0,0.0,99,0.00,,,0.00,VWS V13.01,2013-07-14 10:26:00,
2013-07-14 06:31:00,70.2,69.9,30.26,SSW,206,0.0,0.0,99,0.00,,,0.00,VWS V13.01,2013-07-14 10:31:00,
2013-07-14 06:36:00,70.2,69.9,30.26,SSW,206,0.0,0.0,99,0.00,,,0.00,VWS V13.01,2013-07-14 10:36:00,
2013-07-14 06:41:00,70.3,70.0,30.26,SSW,206,0.0,0.0,99,0.00,,,0.00,VWS V13.01,2013-07-14 10:41:00,
2013-07-14 06:46:00,70.4,70.1,30.26,SSW,206,0.0,0.0,99,0.00,,,0.00,VWS V13.01,2013-07-14 10:46:00,
2013-07-14 06:51:00,70.5,70.2,30.26,SSW,206,0.0,0.0,99,0.00,,,0.00,VWS V13.01,2013-07-14 10:51:00,
2013-07-14 06:56:00,70.7,70.4,30.26,SSW,206,0.0,0.0,99,0.00,,,0.00,VWS V13.01,2013-07-14 10:56:00,
2013-07-14 07:01:00,70.9,70.6,30.26,SSW,206,0.0,0.0,99,0.00,,,0.00,VWS V13.01,2013-07-14 11:01:00,
2013-07-14 07:06:00,71.0,70.7,30.26,SSW,206,0.0,0.0,99,0.00,,,0.00,VWS V13.01,2013-07-14 11:06:00,
2013-07-14 07:11:00,71.2,70.9,30.26,SSW,206,0.0,0.0,99,0.00,,,0.00,VWS V13.01,2013-07-14 11:11:00,
2013-07-14 07:16:00,71.2,70.9,30.26,SSW,206,0.0,0.0,99,0.00,,,0.00,VWS V13.01,2013-07-14 11:16:00,
2013-07-14 07:21:00,71.4,71.1,30.26,SSW,206,0.0,1.0,99,0.00,,,0.00,VWS V13.01,2013-07-14 11:21:00,
2013-07-14 07:26:00,71.5,71.2,30.27,SSW,206,0.0,1.0,99,0.00,,,0.00,VWS V13.01,2013-07-14 11:26:00,
2013-07-14 07:31:00,71.6,71.3,30.27,SSW,206,0.0,1.0,99,0.00,,,0.00,VWS V13.01,2013-07-14 11:31:00,
2013-07-14 07:36:00,71.7,71.4,30.27,SSW,206,0.0,0.0,99,0.00,,,0.00,VWS V13.01,2013-07-14 11:36:00,
2013-07-14 07:41:00,71.9,71.6,30.27,SSW,206,0.0,0.0,99,0.00,,,0.00,VWS V13.01,2013-07-14 11:41:00,
2013-07-14 07:46:00,72.1,71.8,30.27,SSW,206,0.0,0.0,99,0.00,,,0.00,VWS V13.01,2013-07-14 11:46:00,
2013-07-14 07:51:00,72.1,71.8,30.27,SSW,206,0.0,0.0,99,0.00,,,0.00,VWS V13.01,2013-07-14 11:51:00,
2013-07-14 07:56:00,72.3,72.0,30.27,SSW,207,0.0,2.0,99,0.00,,,0.00,VWS V13.01,2013-07-14 11:56:00,
2013-07-14 08:01:00,72.3,72.0,30.27,SSW,207,0.0,0.0,99,0.00,,,0.00,VWS V13.01,2013-07-14 12:01:00,
2013-07-14 08:06:00,72.3,72.0,30.26,SSW,207,0.0,1.0,99,0.00,,,0.00,VWS V13.01,2013-07-14 12:06:00,
2013-07-14 08:11:00,72.4,72.1,30.27,SSW,207,0.0,1.0,99,0.00,,,0.00,VWS V13.01,2013-07-14 12:11:00,
2013-07-14 08:17:00,72.4,72.1,30.26,SSW,207,0.0,1.0,99,0.00,,,0.00,VWS V13.01,2013-07-14 12:17:00,
2013-07-14 08:22:00,72.6,72.3,30.26,SSW,207,0.0,2.0,99,0.00,,,0.00,VWS V13.01,2013-07-14 12:22:00,
2013-07-14 08:27:00,72.7,72.4,30.26,SSW,207,0.0,2.0,99,0.00,,,0.00,VWS V13.01,2013-07-14 12:27:00,
2013-07-14 08:32:00,72.9,72.6,30.26,SSW,207,0.0,1.0,99,0.00,,,0.00,VWS V13.01,2013-07-14 12:32:00,
2013-07-14 08:37:00,73.1,72.8,30.26,SSW,207,0.0,1.0,99,0.00,,,0.00,VWS V13.01,2013-07-14 12:37:00,
2013-07-14 08:42:00,73.3,73.0,30.26,SW,224,0.0,2.0,99,0.00,,,0.00,VWS V13.01,2013-07-14 12:42:00,
2013-07-14 08:47:00,73.5,73.2,30.26,WSW,240,0.0,3.0,99,0.00,,,0.00,VWS V13.01,2013-07-14 12:47:00,
2013-07-14 08:52:00,73.8,73.5,30.26,WSW,240,0.0,3.0,99,0.00,,,0.00,VWS V13.01,2013-07-14 12:52:00,
2013-07-14 08:57:00,74.2,73.9,30.26,SW,225,0.0,3.0,99,0.00,,,0.00,VWS V13.01,2013-07-14 12:57:00,
2013-07-14 09:02:00,74.9,74.6,30.26,SW,229,0.0,2.0,99,0.00,,FEW004,0.00,VWS V13.01,2013-07-14 13:02:00,
2013-07-14 09:07:00,75.9,75.3,30.26,SW,229,0.0,2.0,98,0.00,,FEW004,0.00,VWS V13.01,2013-07-14 13:07:00,
2013-07-14 09:12:00,77.1,75.9,30.26,SW,227,0.0,2.0,96,0.00,,FEW004,0.00,VWS V13.01,2013-07-14 13:12:00,
2013-07-14 09:17:00,78.2,76.0,30.25,SW,227,0.0,2.0,93,0.00,,FEW004,0.00,VWS V13.01,2013-07-14 13:17:00,
2013-07-14 09:22:00,79.2,76.3,30.25,SW,225,1.0,3.0,91,0.00,,FEW004,0.00,VWS V13.01,2013-07-14 13:22:00,
2013-07-14 09:27:00,80.0,76.5,30.25,SW,225,0.0,3.0,89,0.00,,FEW004,0.00,VWS V13.01,2013-07-14 13:27:00,
2013-07-14 09:32:00,80.9,76.3,30.25,North,349,0.0,0.0,86,0.00,,FEW004,0.00,VWS V13.01,2013-07-14 13:32:00,
2013-07-14 09:37:00,81.7,77.8,30.25,NNW,340,0.0,2.0,88,0.00,,FEW004,0.00,VWS V13.01,2013-07-14 13:37:00,
2013-07-14 09:42:00,82.5,77.2,30.24,NNW,335,1.0,4.0,84,0.00,,FEW004,0.00,VWS V13.01,2013-07-14 13:42:00,
2013-07-14 09:47:00,83.4,76.6,30.25,NNW,346,0.0,4.0,80,0.00,,FEW004,0.00,VWS V13.01,2013-07-14 13:47:00,
2013-07-14 09:52:00,84.0,77.5,30.25,NNW,346,1.0,4.0,81,0.00,,FEW004,0.00,VWS V13.01,2013-07-14 13:52:00,
2013-07-14 09:57:00,84.3,76.3,30.24,NNW,346,0.0,4.0,77,0.00,,FEW004,0.00,VWS V13.01,2013-07-14 13:57:00,
2013-07-14 10:02:00,84.6,76.6,30.24,NW,326,0.0,1.0,77,0.00,,FEW004,0.00,VWS V13.01,2013-07-14 14:02:00,
2013-07-14 10:08:00,85.0,76.2,30.24,NW,323,0.0,4.0,75,0.00,,FEW004,0.00,VWS V13.01,2013-07-14 14:08:00,
2013-07-14 10:13:00,85.5,76.7,30.24,NW,319,0.0,4.0,75,0.00,,FEW004,0.00,VWS V13.01,2013-07-14 14:13:00,
2013-07-14 10:18:00,86.2,76.5,30.24,NW,319,0.0,4.0,73,0.00,,FEW004,0.00,VWS V13.01,2013-07-14 14:18:00,
2013-07-14 10:23:00,86.4,75.0,30.24,NW,322,0.0,4.0,69,0.00,,FEW004,0.00,VWS V13.01,2013-07-14 14:23:00,
2013-07-14 10:28:00,86.5,76.4,30.24,NW,309,0.0,4.0,72,0.00,,FEW004,0.00,VWS V13.01,2013-07-14 14:28:00,
2013-07-14 10:33:00,86.5,76.8,30.24,WNW,300,0.0,0.0,73,0.00,,FEW004,0.00,VWS V13.01,2013-07-14 14:33:00,
2013-07-14 10:38:00,86.2,75.3,30.24,WNW,300,1.0,2.0,70,0.00,,FEW004,0.00,VWS V13.01,2013-07-14 14:38:00,
2013-07-14 10:43:00,85.9,75.8,30.24,SW,219,0.0,6.0,72,0.00,,FEW004,0.00,VWS V13.01,2013-07-14 14:43:00,
2013-07-14 10:48:00,86.0,75.5,30.24,NW,317,1.0,6.0,71,0.00,,FEW020,0.00,VWS V13.01,2013-07-14 14:48:00,
2013-07-14 10:53:00,86.7,76.2,30.24,NW,317,0.0,6.0,71,0.00,,FEW020,0.00,VWS V13.01,2013-07-14 14:53:00,
2013-07-14 10:58:00,87.0,76.5,30.24,NW,317,0.0,6.0,71,0.00,,FEW020,0.00,VWS V13.01,2013-07-14 14:58:00,
2013-07-14 11:03:00,87.0,75.6,30.24,NW,317,0.0,2.0,69,0.00,,FEW020,0.00,VWS V13.01,2013-07-14 15:03:00,
2013-07-14 11:08:00,87.1,76.6,30.24,NW,320,1.0,3.0,71,0.00,,FEW020,0.00,VWS V13.01,2013-07-14 15:08:00,
2013-07-14 11:13:00,86.8,75.0,30.24,NW,320,0.0,3.0,68,0.00,,FEW020,0.00,VWS V13.01,2013-07-14 15:13:00,
2013-07-14 11:18:00,86.8,77.1,30.24,NW,320,1.0,3.0,73,0.00,,FEW020,0.00,VWS V13.01,2013-07-14 15:18:00,
2013-07-14 11:23:00,87.4,76.4,30.23,NW,321,0.0,4.0,70,0.00,,FEW020,0.00,VWS V13.01,2013-07-14 15:23:00,
2013-07-14 11:28:00,87.9,75.1,30.23,NW,321,0.0,4.0,66,0.00,,FEW020,0.00,VWS V13.01,2013-07-14 15:28:00,
2013-07-14 11:33:00,88.3,74.6,30.23,NNW,331,0.0,4.0,64,0.00,,FEW020,0.00,VWS V13.01,2013-07-14 15:33:00,
2013-07-14 11:38:00,88.1,73.9,30.23,NNW,331,0.0,4.0,63,0.00,,FEW020,0.00,VWS V13.01,2013-07-14 15:38:00,
2013-07-14 11:44:00,88.0,76.1,30.23,NNW,331,0.0,4.0,68,0.00,,FEW020,0.00,VWS V13.01,2013-07-14 15:44:00,
2013-07-14 11:49:00,88.5,74.8,30.23,NNW,327,0.0,4.0,64,0.00,,SCT028,0.00,VWS V13.01,2013-07-14 15:49:00,
2013-07-14 11:54:00,88.7,74.5,30.23,NNW,338,0.0,4.0,63,0.00,,SCT028,0.00,VWS V13.01,2013-07-14 15:54:00,
2013-07-14 11:59:00,88.6,73.9,30.23,NNW,327,0.0,4.0,62,0.00,,SCT028,0.00,VWS V13.01,2013-07-14 15:59:00,
2013-07-14 12:04:00,89.2,75.0,30.23,NNW,333,0.0,4.0,63,0.00,,SCT028,0.00,VWS V13.01,2013-07-14 16:04:00,
2013-07-14 12:09:00,89.4,76.1,30.23,NNE,16,0.0,4.0,65,0.00,,SCT028,0.00,VWS V13.01,2013-07-14 16:09:00,
2013-07-14 12:14:00,89.5,75.2,30.22,SW,221,0.0,6.0,63,0.00,,SCT028,0.00,VWS V13.01,2013-07-14 16:14:00,
2013-07-14 12:19:00,90.2,75.4,30.22,NW,317,2.0,6.0,62,0.00,,SCT028,0.00,VWS V13.01,2013-07-14 16:19:00,
2013-07-14 12:24:00,90.4,75.6,30.22,NW,324,0.0,6.0,62,0.00,,SCT028,0.00,VWS V13.01,2013-07-14 16:24:00,
2013-07-14 12:29:00,90.0,73.2,30.22,NNW,327,0.0,6.0,58,0.00,,SCT028,0.00,VWS V13.01,2013-07-14 16:29:00,
2013-07-14 12:34:00,89.9,75.1,30.22,NW,314,1.0,4.0,62,0.00,,SCT028,0.00,VWS V13.01,2013-07-14 16:34:00,
2013-07-14 12:39:00,89.9,74.7,30.21,NNW,341,0.0,7.0,61,0.00,,SCT028,0.00,VWS V13.01,2013-07-14 16:39:00,
2013-07-14 12:44:00,90.3,75.0,30.21,NW,309,3.0,7.0,61,0.00,,SCT028,0.00,VWS V13.01,2013-07-14 16:44:00,
2013-07-14 12:49:00,90.8,74.5,30.21,NW,311,1.0,7.0,59,0.00,,SCT047,0.00,VWS V13.01,2013-07-14 16:49:00,
2013-07-14 12:54:00,90.8,74.0,30.21,NW,311,1.0,7.0,58,0.00,,SCT047,0.00,VWS V13.01,2013-07-14 16:54:00,
2013-07-14 12:59:00,90.6,75.3,30.21,SW,217,0.0,7.0,61,0.00,,SCT047,0.00,VWS V13.01,2013-07-14 16:59:00,
2013-07-14 13:04:00,90.3,71.9,30.21,NW,321,1.0,3.0,55,0.00,,SCT047,0.00,VWS V13.01,2013-07-14 17:04:00,
2013-07-14 13:09:00,90.1,73.3,30.21,NW,321,0.0,3.0,58,0.00,,SCT047,0.00,VWS V13.01,2013-07-14 17:09:00,
2013-07-14 13:14:00,89.7,73.0,30.21,NNW,332,1.0,3.0,58,0.00,,SCT047,0.00,VWS V13.01,2013-07-14 17:14:00,
2013-07-14 13:19:00,89.6,74.9,30.21,NNE,13,0.0,3.0,62,0.00,,SCT047,0.00,VWS V13.01,2013-07-14 17:19:00,
2013-07-14 13:24:00,89.6,73.9,30.21,NW,326,0.0,3.0,60,0.00,,SCT047,0.00,VWS V13.01,2013-07-14 17:24:00,
2013-07-14 13:29:00,89.4,75.6,30.21,NNE,24,0.0,4.0,64,0.00,,SCT047,0.00,VWS V13.01,2013-07-14 17:29:00,
2013-07-14 13:35:00,89.5,73.8,30.21,NNW,348,0.0,6.0,60,0.00,,SCT047,0.00,VWS V13.01,2013-07-14 17:35:00,
2013-07-14 13:40:00,89.9,73.2,30.21,NNW,338,1.0,6.0,58,0.00,,SCT047,0.00,VWS V13.01,2013-07-14 17:40:00,
2013-07-14 13:45:00,90.3,74.0,30.21,WNW,295,1.0,6.0,59,0.00,,SCT047,0.00,VWS V13.01,2013-07-14 17:45:00,
2013-07-14 13:50:00,90.7,74.9,30.20,WNW,295,0.0,6.0,60,0.00,,FEW045,0.00,VWS V13.01,2013-07-14 17:50:00,
2013-07-14 13:55:00,91.0,73.7,30.20,South,188,1.0,6.0,57,0.00,,FEW045,0.00,VWS V13.01,2013-07-14 17:55:00,
2013-07-14 14:00:00,90.7,71.2,30.20,NW,324,3.0,6.0,53,0.00,,FEW045,0.00,VWS V13.01,2013-07-14 18:00:00,
2013-07-14 14:05:00,90.8,72.4,30.20,NW,323,1.0,2.0,55,0.00,,FEW045,0.00,VWS V13.01,2013-07-14 18:05:00,
2013-07-14 14:10:00,90.7,71.8,30.20,North,360,0.0,3.0,54,0.00,,FEW045,0.00,VWS V13.01,2013-07-14 18:10:00,
2013-07-14 14:15:00,90.3,73.5,30.20,NW,315,3.0,3.0,58,0.00,,FEW045,0.00,VWS V13.01,2013-07-14 18:15:00,
2013-07-14 14:20:00,89.9,70.5,30.20,NW,316,1.0,6.0,53,0.00,,FEW045,0.00,VWS V13.01,2013-07-14 18:20:00,
2013-07-14 14:25:00,89.6,73.9,30.19,NW,316,0.0,6.0,60,0.00,,FEW045,0.00,VWS V13.01,2013-07-14 18:25:00,
2013-07-14 14:30:00,89.1,74.4,30.19,NW,316,0.0,6.0,62,0.00,,FEW045,0.00,VWS V13.01,2013-07-14 18:30:00,
2013-07-14 14:35:00,89.2,73.5,30.19,NW,316,0.0,1.0,60,0.00,,FEW045,0.00,VWS V13.01,2013-07-14 18:35:00,
2013-07-14 14:40:00,89.6,72.9,30.19,NW,316,0.0,1.0,58,0.00,,FEW045,0.00,VWS V13.01,2013-07-14 18:40:00,
2013-07-14 14:45:00,89.9,72.6,30.19,NW,317,0.0,3.0,57,0.00,,SCT080,0.00,VWS V13.01,2013-07-14 18:45:00,
2013-07-14 14:50:00,90.2,73.4,30.19,NW,318,0.0,3.0,58,0.00,,SCT080,0.00,VWS V13.01,2013-07-14 18:50:00,
2013-07-14 14:55:00,90.3,72.5,30.19,NW,319,0.0,3.0,56,0.00,,SCT080,0.00,VWS V13.01,2013-07-14 18:55:00,
2013-07-14 15:00:00,90.6,72.2,30.19,NW,304,4.0,4.0,55,0.00,,SCT080,0.00,VWS V13.01,2013-07-14 19:00:00,
2013-07-14 15:05:00,90.7,73.4,30.19,NW,309,1.0,3.0,57,0.00,,SCT080,0.00,VWS V13.01,2013-07-14 19:05:00,
2013-07-14 15:10:00,90.6,73.3,30.19,NNW,340,0.0,5.0,57,0.00,,SCT080,0.00,VWS V13.01,2013-07-14 19:10:00,
2013-07-14 15:16:00,90.9,71.4,30.18,NW,320,0.0,5.0,53,0.00,,SCT080,0.00,VWS V13.01,2013-07-14 19:16:00,
2013-07-14 15:21:00,91.6,73.2,30.18,NW,320,0.0,5.0,55,0.00,,SCT080,0.00,VWS V13.01,2013-07-14 19:21:00,
2013-07-14 15:26:00,92.2,73.2,30.18,NNW,338,2.0,5.0,54,0.00,,SCT080,0.00,VWS V13.01,2013-07-14 19:26:00,
2013-07-14 15:31:00,92.4,72.8,30.18,NW,320,2.0,5.0,53,0.00,,SCT080,0.00,VWS V13.01,2013-07-14 19:31:00,
2013-07-14 15:36:00,92.4,71.7,30.18,NW,319,0.0,2.0,51,0.00,,SCT080,0.00,VWS V13.01,2013-07-14 19:36:00,
2013-07-14 15:41:00,92.4,72.2,30.18,NW,326,0.0,2.0,52,0.00,,SCT080,0.00,VWS V13.01,2013-07-14 19:41:00,
2013-07-14 15:46:00,92.2,73.2,30.18,NW,326,0.0,2.0,54,0.00,,BKN095,0.00,VWS V13.01,2013-07-14 19:46:00,
2013-07-14 15:51:00,91.8,72.8,30.18,NW,326,0.0,2.0,54,0.00,,BKN095,0.00,VWS V13.01,2013-07-14 19:51:00,
2013-07-14 15:56:00,91.3,72.9,30.17,NW,326,0.0,2.0,55,0.00,,BKN095,0.00,VWS V13.01,2013-07-14 19:56:00,
2013-07-14 16:01:00,91.0,73.7,30.17,NW,326,0.0,2.0,57,0.00,,BKN095,0.00,VWS V13.01,2013-07-14 20:01:00,
2013-07-14 16:06:00,90.9,73.6,30.17,NW,326,0.0,0.0,57,0.00,,BKN095,0.00,VWS V13.01,2013-07-14 20:06:00,
2013-07-14 16:11:00,90.8,73.5,30.18,NW,326,0.0,0.0,57,0.00,,BKN095,0.00,VWS V13.01,2013-07-14 20:11:00,
2013-07-14 16:16:00,90.6,72.2,30.17,NW,326,0.0,0.0,55,0.00,,BKN095,0.00,VWS V13.01,2013-07-14 20:16:00,
2013-07-14 16:21:00,89.9,74.7,30.17,NW,326,0.0,0.0,61,0.00,,BKN095,0.00,VWS V13.01,2013-07-14 20:21:00,
2013-07-14 16:26:00,89.3,71.0,30.18,NW,326,0.0,0.0,55,0.00,,BKN095,0.00,VWS V13.01,2013-07-14 20:26:00,
2013-07-14 16:31:00,89.3,74.6,30.17,NW,326,0.0,0.0,62,0.00,,BKN095,0.00,VWS V13.01,2013-07-14 20:31:00,
2013-07-14 16:36:00,88.8,75.1,30.18,NW,326,0.0,0.0,64,0.00,,BKN095,0.00,VWS V13.01,2013-07-14 20:36:00,
2013-07-14 16:41:00,88.2,75.0,30.17,NW,326,0.0,1.0,65,0.00,,BKN095,0.00,VWS V13.01,2013-07-14 20:41:00,
2013-07-14 16:46:00,87.4,75.1,30.17,NW,326,0.0,1.0,67,0.00,,SCT100,0.00,VWS V13.01,2013-07-14 20:46:00,
2013-07-14 16:51:00,86.8,73.2,30.17,NW,326,0.0,1.0,64,0.00,,SCT100,0.00,VWS V13.01,2013-07-14 20:51:00,
2013-07-14 16:56:00,86.3,75.4,30.17,NW,326,0.0,1.0,70,0.00,,SCT100,0.00,VWS V13.01,2013-07-14 20:56:00,
2013-07-14 17:02:00,86.0,74.2,30.17,NW,326,0.0,0.0,68,0.00,,SCT100,0.00,VWS V13.01,2013-07-14 21:02:00,
2013-07-14 17:07:00,85.8,74.0,30.17,NW,326,0.0,0.0,68,0.00,,SCT100,0.00,VWS V13.01,2013-07-14 21:07:00,
2013-07-14 17:12:00,86.1,73.4,30.17,NW,326,0.0,1.0,66,0.00,,SCT100,0.00,VWS V13.01,2013-07-14 21:12:00,
2013-07-14 17:17:00,86.5,75.6,30.17,NW,326,0.0,1.0,70,0.00,,SCT100,0.00,VWS V13.01,2013-07-14 21:17:00,
2013-07-14 17:22:00,86.3,74.9,30.17,NW,326,0.0,1.0,69,0.00,,SCT100,0.00,VWS V13.01,2013-07-14 21:22:00,
2013-07-14 17:27:00,85.8,74.9,30.17,NW,326,0.0,1.0,70,0.00,,SCT100,0.00,VWS V13.01,2013-07-14 21:27:00,
2013-07-14 17:32:00,85.3,75.2,30.17,NW,326,0.0,0.0,72,0.00,,SCT100,0.00,VWS V13.01,2013-07-14 21:32:00,
2013-07-14 17:37:00,85.0,75.0,30.17,NW,326,0.0,0.0,72,0.00,,SCT100,0.00,VWS V13.01,2013-07-14 21:37:00,
2013-07-14 17:42:00,84.8,74.4,30.17,NW,326,0.0,0.0,71,0.00,,SCT100,0.00,VWS V13.01,2013-07-14 21:42:00,
2013-07-14 17:48:00,84.5,75.3,30.17,NW,325,0.0,0.0,74,0.00,,OVC060,0.00,VWS V13.01,2013-07-14 21:48:00,
2013-07-14 17:53:00,84.3,75.5,30.17,NW,325,0.0,0.0,75,0.00,,OVC060,0.00,VWS V13.01,2013-07-14 21:53:00,
2013-07-14 17:58:00,84.0,76.0,30.17,NW,325,0.0,0.0,77,0.00,,OVC060,0.00,VWS V13.01,2013-07-14 21:58:00,
2013-07-14 18:03:00,83.8,75.8,30.17,NW,325,0.0,0.0,77,0.00,,OVC060,0.00,VWS V13.01,2013-07-14 22:03:00,
2013-07-14 18:08:00,83.7,76.1,30.17,NW,325,0.0,0.0,78,0.00,,OVC060,0.00,VWS V13.01,2013-07-14 22:08:00,
2013-07-14 18:13:00,83.4,75.1,30.17,NW,325,0.0,0.0,76,0.00,,OVC060,0.00,VWS V13.01,2013-07-14 22:13:00,
2013-07-14 18:18:00,83.3,75.3,30.17,NW,325,0.0,0.0,77,0.00,,OVC060,0.00,VWS V13.01,2013-07-14 22:18:00,
2013-07-14 18:23:00,83.1,75.9,30.17,NW,325,0.0,0.0,79,0.00,,OVC060,0.00,VWS V13.01,2013-07-14 22:23:00,
2013-07-14 18:28:00,82.9,75.7,30.17,NW,325,0.0,0.0,79,0.00,,OVC060,0.00,VWS V13.01,2013-07-14 22:28:00,
2013-07-14 18:33:00,82.8,76.0,30.17,NW,325,0.0,0.0,80,0.00,,OVC060,0.00,VWS V13.01,2013-07-14 22:33:00,
2013-07-14 18:38:00,82.6,75.8,30.17,NW,325,0.0,0.0,80,0.00,,OVC060,0.00,VWS V13.01,2013-07-14 22:38:00,
2013-07-14 18:43:00,82.3,75.1,30.17,NW,325,0.0,0.0,79,0.00,,OVC060,0.00,VWS V13.01,2013-07-14 22:43:00,
2013-07-14 18:48:00,82.1,75.3,30.17,NW,325,0.0,0.0,80,0.00,,CLR,0.00,VWS V13.01,2013-07-14 22:48:00,
2013-07-14 18:53:00,81.9,75.5,30.17,NW,325,0.0,0.0,81,0.00,,CLR,0.00,VWS V13.01,2013-07-14 22:53:00,
2013-07-14 18:58:00,81.7,74.9,30.17,NW,325,0.0,0.0,80,0.00,,CLR,0.00,VWS V13.01,2013-07-14 22:58:00,
2013-07-14 19:03:00,81.5,75.1,30.17,NW,325,0.0,0.0,81,0.00,,CLR,0.00,VWS V13.01,2013-07-14 23:03:00,
2013-07-14 19:08:00,81.3,74.9,30.17,NW,325,0.0,0.0,81,0.00,,CLR,0.00,VWS V13.01,2013-07-14 23:08:00,
2013-07-14 19:13:00,81.1,74.7,30.17,NW,325,0.0,0.0,81,0.00,,CLR,0.00,VWS V13.01,2013-07-14 23:13:00,
2013-07-14 19:19:00,80.9,74.9,30.17,NW,325,0.0,0.0,82,0.00,,CLR,0.00,VWS V13.01,2013-07-14 23:19:00,
2013-07-14 19:24:00,80.8,75.2,30.17,NW,325,0.0,0.0,83,0.00,,CLR,0.00,VWS V13.01,2013-07-14 23:24:00,
2013-07-14 19:29:00,80.7,75.1,30.17,NW,325,0.0,0.0,83,0.00,,CLR,0.00,VWS V13.01,2013-07-14 23:29:00,
2013-07-14 19:34:00,80.5,74.9,30.17,NW,325,0.0,0.0,83,0.00,,CLR,0.00,VWS V13.01,2013-07-14 23:34:00,
2013-07-14 19:39:00,80.4,74.4,30.17,NW,325,0.0,0.0,82,0.00,,CLR,0.00,VWS V13.01,2013-07-14 23:39:00,
2013-07-14 19:44:00,80.2,74.2,30.17,NW,325,0.0,0.0,82,0.00,,CLR,0.00,VWS V13.01,2013-07-14 23:44:00,
2013-07-14 19:49:00,80.0,74.4,30.17,NW,325,0.0,0.0,83,0.00,,SCT095,0.00,VWS V13.01,2013-07-14 23:49:00,
2013-07-14 19:54:00,79.9,74.3,30.17,NW,325,0.0,0.0,83,0.00,,SCT095,0.00,VWS V13.01,2013-07-14 23:54:00,
2013-07-14 19:59:00,79.7,74.1,30.17,NW,325,0.0,0.0,83,0.00,,SCT095,0.00,VWS V13.01,2013-07-14 23:59:00,
2013-07-14 20:04:00,79.5,74.2,30.17,NW,325,0.0,0.0,84,0.00,,SCT095,0.00,VWS V13.01,2013-07-15 00:04:00,
2013-07-14 20:09:00,79.3,74.1,30.17,NW,325,0.0,0.0,84,0.00,,SCT095,0.00,VWS V13.01,2013-07-15 00:09:00,
2013-07-14 20:14:00,79.2,73.9,30.17,NW,325,0.0,0.0,84,0.00,,SCT095,0.00,VWS V13.01,2013-07-15 00:14:00,
2013-07-14 20:19:00,78.9,73.7,30.17,NW,325,0.0,0.0,84,0.00,,CLR,0.00,VWS V13.01,2013-07-15 00:19:00,
2013-07-14 20:24:00,78.7,73.8,30.17,NW,325,0.0,0.0,85,0.00,,CLR,0.00,VWS V13.01,2013-07-15 00:24:00,
2013-07-14 20:29:00,78.5,73.6,30.17,NW,325,0.0,0.0,85,0.00,,CLR,0.00,VWS V13.01,2013-07-15 00:29:00,
2013-07-14 20:34:00,78.3,73.4,30.17,NW,325,0.0,0.0,85,0.00,,CLR,0.00,VWS V13.01,2013-07-15 00:34:00,
2013-07-14 20:40:00,78.0,73.5,30.17,NW,325,0.0,0.0,86,0.00,,CLR,0.00,VWS V13.01,2013-07-15 00:40:00,
2013-07-14 20:45:00,77.8,73.3,30.17,NW,325,0.0,0.0,86,0.00,,CLR,0.00,VWS V13.01,2013-07-15 00:45:00,
2013-07-14 20:50:00,77.6,73.1,30.17,NW,325,0.0,0.0,86,0.00,,CLR,0.00,VWS V13.01,2013-07-15 00:50:00,
2013-07-14 20:55:00,77.3,72.8,30.17,NW,325,0.0,0.0,86,0.00,,CLR,0.00,VWS V13.01,2013-07-15 00:55:00,
2013-07-14 21:00:00,77.1,72.9,30.17,NW,325,0.0,0.0,87,0.00,,CLR,0.00,VWS V13.01,2013-07-15 01:00:00,
2013-07-14 21:05:00,76.9,73.1,30.18,NW,325,0.0,0.0,88,0.00,,CLR,0.00,VWS V13.01,2013-07-15 01:05:00,
2013-07-14 21:10:00,76.7,72.9,30.17,NW,325,0.0,0.0,88,0.00,,CLR,0.00,VWS V13.01,2013-07-15 01:10:00,
2013-07-14 21:15:00,76.6,72.8,30.18,NW,325,0.0,0.0,88,0.00,,CLR,0.00,VWS V13.01,2013-07-15 01:15:00,
2013-07-14 21:20:00,76.4,72.9,30.18,NW,325,0.0,0.0,89,0.00,,CLR,0.00,VWS V13.01,2013-07-15 01:20:00,
2013-07-14 21:25:00,76.2,72.7,30.18,NW,325,0.0,0.0,89,0.00,,CLR,0.00,VWS V13.01,2013-07-15 01:25:00,
2013-07-14 21:30:00,76.0,72.9,30.18,NW,325,0.0,0.0,90,0.00,,CLR,0.00,VWS V13.01,2013-07-15 01:30:00,
2013-07-14 21:35:00,75.8,73.0,30.18,NW,325,0.0,0.0,91,0.00,,CLR,0.00,VWS V13.01,2013-07-15 01:35:00,
2013-07-14 21:40:00,75.7,72.9,30.18,NW,325,0.0,0.0,91,0.00,,CLR,0.00,VWS V13.01,2013-07-15 01:40:00,
2013-07-14 21:45:00,75.5,72.7,30.18,NW,325,0.0,0.0,91,0.00,,CLR,0.00,VWS V13.01,2013-07-15 01:45:00,
2013-07-14 21:50:00,75.3,72.8,30.17,NW,325,0.0,0.0,92,0.00,,CLR,0.00,VWS V13.01,2013-07-15 01:50:00,
2013-07-14 21:55:00,75.3,72.8,30.17,NW,325,0.0,0.0,92,0.00,,CLR,0.00,VWS V13.01,2013-07-15 01:55:00,
2013-07-14 22:00:00,75.2,73.0,30.18,NW,325,0.0,0.0,93,0.00,,CLR,0.00,VWS V13.01,2013-07-15 02:00:00,
2013-07-14 22:06:00,75.1,72.9,30.18,NW,325,0.0,0.0,93,0.00,,CLR,0.00,VWS V13.01,2013-07-15 02:06:00,
2013-07-14 22:11:00,74.9,72.7,30.18,NW,325,0.0,0.0,93,0.00,,CLR,0.00,VWS V13.01,2013-07-15 02:11:00,
2013-07-14 22:16:00,74.7,72.6,30.17,NW,325,0.0,0.0,93,0.00,,CLR,0.00,VWS V13.01,2013-07-15 02:16:00,
2013-07-14 22:21:00,74.5,72.3,30.17,NW,325,0.0,0.0,93,0.00,,CLR,0.00,VWS V13.01,2013-07-15 02:21:00,
2013-07-14 22:26:00,74.3,72.5,30.17,NW,325,0.0,0.0,94,0.00,,CLR,0.00,VWS V13.01,2013-07-15 02:26:00,
2013-07-14 22:31:00,74.2,72.4,30.18,NW,325,0.0,0.0,94,0.00,,CLR,0.00,VWS V13.01,2013-07-15 02:31:00,
2013-07-14 22:36:00,74.2,72.7,30.17,NW,325,0.0,0.0,95,0.00,,CLR,0.00,VWS V13.01,2013-07-15 02:36:00,
2013-07-14 22:41:00,74.1,72.6,30.17,NW,325,0.0,0.0,95,0.00,,CLR,0.00,VWS V13.01,2013-07-15 02:41:00,
2013-07-14 22:46:00,74.1,72.6,30.17,NW,325,0.0,0.0,95,0.00,,CLR,0.00,VWS V13.01,2013-07-15 02:46:00,
2013-07-14 22:51:00,74.0,72.5,30.17,NW,325,0.0,0.0,95,0.00,,CLR,0.00,VWS V13.01,2013-07-15 02:51:00,
2013-07-14 22:56:00,73.9,72.4,30.17,NW,325,0.0,0.0,95,0.00,,CLR,0.00,VWS V13.01,2013-07-15 02:56:00,
2013-07-14 23:01:00,73.9,72.4,30.17,NW,325,0.0,0.0,95,0.00,,CLR,0.00,VWS V13.01,2013-07-15 03:01:00,
2013-07-14 23:06:00,73.7,72.2,30.17,NW,325,0.0,0.0,95,0.00,,CLR,0.00,VWS V13.01,2013-07-15 03:06:00,
2013-07-14 23:11:00,73.5,71.7,30.17,NW,325,0.0,0.0,94,0.00,,CLR,0.00,VWS V13.01,2013-07-15 03:11:00,
2013-07-14 23:16:00,73.3,71.8,30.17,NW,325,0.0,0.0,95,0.00,,CLR,0.00,VWS V13.01,2013-07-15 03:16:00,
2013-07-14 23:21:00,73.3,72.1,30.17,NW,325,0.0,0.0,96,0.00,,CLR,0.00,VWS V13.01,2013-07-15 03:21:00,
2013-07-14 23:26:00,73.3,72.1,30.17,NW,325,0.0,0.0,96,0.00,,CLR,0.00,VWS V13.01,2013-07-15 03:26:00,
2013-07-14 23:31:00,73.3,72.1,30.17,NW,325,0.0,0.0,96,0.00,,CLR,0.00,VWS V13.01,2013-07-15 03:31:00,
2013-07-14 23:36:00,73.2,72.0,30.17,NW,325,0.0,0.0,96,0.00,,CLR,0.00,VWS V13.01,2013-07-15 03:36:00,
2013-07-14 23:42:00,73.1,71.6,30.17,NW,325,0.0,0.0,95,0.00,,CLR,0.00,VWS V13.01,2013-07-15 03:42:00,
2013-07-14 23:47:00,72.9,71.4,30.17,NW,325,0.0,0.0,95,0.00,,CLR,0.00,VWS V13.01,2013-07-15 03:47:00,
2013-07-14 23:52:00,72.7,71.2,30.17,NW,325,0.0,0.0,95,0.00,,CLR,0.00,VWS V13.01,2013-07-15 03:52:00,
2013-07-14 23:57:00,72.5,71.3,30.17,NW,325,0.0,0.0,96,0.00,,CLR,0.00,VWS V13.01,2013-07-15 03:57:00,